Temp
72 72 73 73 73 73 74 75 75 75 75 75 75 75 75 75 75 74 74 74 73 69 67 68 70 68 76 72 74 74 74 74 74 74 74 74 74 74 74 74 73 73 74 73 73 72 70 71 72 72 72 73 73 65 65 66 68 68 67 69 69 66
72 73 73 73 73 73 74 74 73 73 74 74 75 75 73 72 75 70 74 71 67 70 66 65 68 73 68 71 72 74 74 74 74 74 73 74 74 73 74 74 74 74 74 73 72 66 66 67 70 72 73 73 65 63 63 66 67 68 68 67 68 68
72 73 73 73 73 73 73 72 72 72 73 74 74 73 71 72 68 69 67 67 69 67 66 66 66 70 68 72 70 74 74 74 74 74 73 73 73 73 73 73 74 73 73 72 66 62 63 63 64 70 70 65 62 63 63 64 66 67 68 67 67 71
72 73 73 73 73 73 72 72 72 72 72 71 71 71 70 69 69 67 67 67 66 67 67 65 72 74 73 69 69 73 74 74 74 73 73 70 70 70 72 72 72 72 69 65 62 63 64 63 65 66 66 65 65 63 64 64 65 67 67 70 68 72
73 73 72 72 72 72 72 73 72 73 72 70 70 70 69 68 68 67 67 67 66 67 66 67 67 69 66 66 62 63 66 66 66 64 70 64 64 65 65 63 63 64 62 62 63 64 64 65 66 67 67 67 68 67 65 66 65 65 66 68 69 72
72 73 73 72 72 73 73 72 72 72 72 70 70 70 70 69 67 67 66 67 67 66 65 65 65 66 65 64 63 63 62 63 63 63 66 64 64 63 61 61 62 64 63 62 62 63 63 65 66 65 66 67 68 68 68 65 66 66 66 66 69 73
72 72 72 73 73 73 72 72 72 72 72 71 71 70 70 69 68 67 67 67 67 66 65 65 65 65 65 65 65 65 64 63 63 63 65 65 64 63 62 63 62 63 62 63 64 64 64 65 64 67 67 68 68 68 68 66 65 66 66 66 68 73
71 71 71 72 72 72 72 72 72 72 72 71 70 70 70 70 69 67 68 68 70 67 66 65 65 64 64 64 65 65 65 64 65 64 64 64 63 63 63 63 63 63 64 65 66 66 65 67 66 66 68 68 68 67 67 66 66 66 66 66 67 71
71 71 71 72 72 71 71 71 72 72 71 72 70 70 70 70 69 68 68 69 70 67 66 67 66 66 64 65 64 64 64 65 64 66 64 65 64 64 64 64 64 65 64 65 65 65 66 67 65 64 66 68 68 68 67 67 66 66 66 66 66 69
71 71 71 72 71 70 71 70 71 71 71 72 69 69 69 69 69 68 68 69 69 68 67 67 67 65 66 65 64 64 65 64 65 65 65 66 65 65 65 64 65 66 65 65 66 67 67 67 68 67 66 67 66 67 66 66 66 66 66 65 66 67
70 71 71 71 70 70 70 70 70 71 71 70 69 69 68 69 68 68 69 69 69 69 68 67 67 66 65 65 65 65 65 65 65 65 66 66 66 66 65 65 66 65 65 64 66 66 67 67 67 68 67 68 68 67 66 67 65 65 65 65 65 66
69 69 69 70 70 69 69 70 70 70 69 69 69 68 68 68 69 69 69 69 69 68 69 67 67 66 66 65 65 65 65 65 66 66 66 66 66 66 66 66 66 66 65 65 65 65 65 65 65 67 66 67 66 67 65 66 65 65 65 65 65 65
69 68 68 68 69 68 68 69 69 69 69 70 69 68 68 68 69 69 69 69 68 68 67 67 67 67 68 66 66 65 65 66 66 66 66 66 66 65 65 66 66 66 65 65 66 66 67 65 65 66 66 68 66 66 66 65 66 65 65 66 65 65
69 68 69 69 68 67 67 68 69 68 69 69 69 68 68 68 69 69 69 68 68 68 67 66 67 67 67 66 66 66 66 66 66 66 66 65 65 64 64 65 65 65 67 64 64 63 64 65 65 64 66 66 66 66 65 65 65 66 65 65 66 65
70 69 70 69 69 68 68 68 68 68 68 68 68 68 68 68 68 69 68 67 68 68 68 67 68 67 67 67 66 65 65 66 66 64 65 64 64 63 64 65 64 65 63 63 62 64 64 62 63 65 65 66 66 66 66 66 66 65 65 65 65 65
69 69 69 69 69 69 68 68 68 70 68 68 68 68 68 68 69 68 67 67 68 69 68 68 68 67 67 67 66 65 65 65 65 64 64 65 65 66 63 64 63 64 64 64 63 64 62 63 64 65 65 65 65 65 66 65 66 66 67 65 66 66
69 68 69 69 69 69 68 68 68 69 68 68 68 68 68 68 68 68 67 67 68 70 68 69 68 67 67 66 65 65 64 65 65 64 63 63 65 63 63 64 63 64 64 63 63 62 64 63 64 65 65 65 65 66 65 65 66 65 66 66 66 65
69 69 69 69 69 69 68 68 68 68 68 68 67 67 67 67 67 67 67 67 68 69 68 68 68 68 66 66 65 65 65 64 64 64 64 63 63 62 62 62 64 62 62 62 62 62 63 64 65 65 65 65 65 64 64 65 65 67 65 65 66 66
69 68 68 69 69 68 68 67 66 67 67 66 66 65 66 66 66 66 66 67 68 69 68 67 67 67 67 67 64 64 63 64 64 64 63 63 62 63 63 62 63 63 63 62 63 63 63 63 64 64 64 64 64 64 64 64 64 63 63 64 65 67
68 68 68 68 68 67 67 65 64 64 65 65 65 65 65 65 65 65 66 66 67 66 67 67 66 66 67 66 65 65 64 64 64 64 64 65 63 63 65 65 64 63 62 62 62 62 61 61 62 61 62 63 63 63 63 63 62 62 63 63 64 64
67 67 68 67 66 66 65 64 64 64 64 64 65 64 64 63 64 64 65 65 65 65 66 67 68 67 65 68 64 64 64 63 64 65 63 64 65 64 63 63 63 62 63 61 61 61 62 60 58 60 59 60 61 61 63 61 60 60 63 63 62 62
65 66 67 67 67 66 66 66 65 65 63 64 64 64 63 63 64 65 65 64 65 65 66 66 68 67 65 64 63 63 64 65 64 65 66 65 65 67 65 64 63 62 61 62 61 61 63 61 57 57 58 58 55 58 59 58 60 62 65 63 62 62
65 66 66 67 67 66 65 66 66 63 64 62 62 63 63 64 65 64 63 64 65 65 66 66 67 67 66 64 64 64 64 63 65 67 66 64 65 65 63 62 62 63 61 60 60 61 62 61 60 57 58 57 53 56 57 55 54 62 64 63 61 63
66 67 67 67 68 66 66 65 65 65 64 64 63 65 64 64 63 64 63 64 64 65 66 66 66 67 66 64 64 64 64 65 66 67 65 64 64 65 62 62 60 61 61 60 57 59 60 59 59 58 55 55 56 57 54 50 55 61 60 59 62 64
67 67 68 68 67 66 65 64 64 64 64 64 64 63 63 62 62 63 64 63 64 65 66 66 66 67 66 64 64 64 65 65 65 65 66 65 65 65 63 61 60 60 60 60 57 55 57 59 58 60 60 56 55 53 53 55 58 60 58 61 60 61
66 67 68 67 66 66 66 64 63 63 62 61 61 61 62 62 62 63 64 64 65 66 66 66 66 66 67 67 65 65 65 65 65 64 65 65 65 64 62 61 61 60 59 59 59 56 56 58 59 59 59 60 61 57 57 59 59 56 62 63 61 60
67 67 67 66 67 67 65 65 65 65 65 64 62 62 62 62 63 63 64 64 65 65 66 67 66 67 67 68 66 65 65 65 65 65 66 65 63 63 62 62 61 59 60 59 58 57 57 56 57 57 59 60 60 60 59 58 57 59 56 60 60 60
68 68 67 66 67 67 66 65 65 65 64 63 64 63 62 62 63 64 64 63 64 64 66 67 67 67 68 68 67 66 66 66 66 65 65 64 62 61 60 60 61 59 59 58 58 58 58 56 57 57 57 59 57 58 57 59 60 58 57 56 59 61
67 67 66 66 66 67 67 66 65 64 63 63 64 62 63 64 63 64 63 62 65 65 65 65 65 66 66 67 67 66 65 64 63 62 63 61 60 59 59 58 59 59 58 58 58 59 57 57 56 56 56 55 55 55 56 58 58 59 58 57 57 58
65 66 66 66 66 65 65 65 64 63 63 62 62 62 63 62 62 62 62 62 63 64 64 64 64 64 64 64 63 63 62 62 62 62 62 59 59 59 58 58 57 58 57 58 57 57 58 57 57 57 58 59 58 58 59 58 58 58 59 59 56 57
64 64 65 65 65 65 64 65 64 64 63 62 62 62 62 61 61 61 62 62 63 63 63 63 62 63 63 62 62 63 62 61 62 62 61 59 59 58 57 58 58 58 59 58 57 57 57 58 60 60 60 58 59 60 59 59 59 59 59 58 58 58
64 64 64 65 65 64 64 64 64 64 63 63 63 63 62 61 61 62 62 62 63 63 63 63 62 61 62 61 62 61 61 60 60 59 59 58 58 57 57 58 58 58 58 57 58 58 58 61 60 60 61 62 61 61 60 58 59 60 59 59 59 58
63 64 64 65 64 64 64 63 63 63 63 63 63 63 63 62 61 62 62 62 63 62 61 61 60 60 59 59 60 60 60 59 59 59 58 58 57 57 57 57 57 57 57 58 58 59 59 59 59 58 59 61 60 59 57 58 59 59 60 60 59 57
64 65 64 64 64 63 63 63 63 63 63 63 63 63 62 62 62 62 62 63 63 61 59 60 60 59 59 59 59 59 59 59 58 58 58 57 57 57 57 58 57 58 58 59 59 58 58 58 58 57 58 58 58 57 56 57 57 58 57 57 57 57
64 65 65 64 64 63 63 63 62 62 62 62 62 61 61 62 62 62 62 63 62 61 60 61 61 61 59 58 58 58 58 58 57 57 56 57 59 56 56 58 58 58 60 59 58 58 57 57 56 55 55 55 55 55 54 55 55 55 56 56 56 56
65 65 65 65 64 63 63 62 62 62 61 61 62 61 61 61 61 62 62 62 61 60 61 61 61 60 58 59 58 58 58 57 57 57 56 57 57 58 57 58 57 58 58 59 57 57 57 57 56 55 54 54 52 52 53 53 54 54 53 54 55 56
65 65 65 65 65 63 62 62 61 61 61 61 61 61 61 61 61 61 61 61 62 61 61 61 60 59 58 57 58 58 57 56 56 56 56 57 57 58 61 60 58 58 58 59 58 57 57 56 55 55 53 52 50 50 51 52 52 52 52 53 54 55
MSLP
1012.37 1012.65 1012.89 1013.13 1013.33 1013.49 1013.61 1013.81 1014.01 1014.21 1014.33 1014.49 1014.65 1014.81 1014.97 1015.13 1015.29 1015.41 1015.53 1015.65 1015.77 1015.93 1016.05 1016.17 1016.21 1016.29 1016.29 1016.45 1016.57 1016.69 1016.73 1016.85 1016.89 1016.93 1016.97 1016.97 1016.97 1016.97 1017.01 1017.05 1017.05 1017.09 1017.09 1017.09 1017.05 1017.05 1017.05 1017.01 1016.97 1016.97 1017.01 1017.05 1017.05 1017.09 1017.09 1016.97 1017.09 1017.17 1017.21 1017.21 1017.21 1017.33
1012.49 1012.77 1013.01 1013.21 1013.41 1013.57 1013.73 1013.93 1014.13 1014.29 1014.45 1014.61 1014.73 1014.89 1015.05 1015.21 1015.37 1015.53 1015.57 1015.73 1015.93 1016.01 1016.17 1016.29 1016.33 1016.33 1016.45 1016.53 1016.61 1016.69 1016.77 1016.81 1016.89 1016.93 1016.97 1017.01 1017.01 1017.01 1017.05 1017.09 1017.09 1017.09 1017.09 1017.09 1017.13 1017.17 1017.13 1017.05 1016.93 1016.89 1016.93 1016.93 1017.09 1017.09 1017.05 1017.05 1017.01 1017.09 1017.17 1017.21 1017.21 1017.21
1012.65 1012.85 1013.09 1013.29 1013.45 1013.65 1013.85 1014.05 1014.25 1014.41 1014.53 1014.65 1014.81 1014.97 1015.13 1015.29 1015.49 1015.61 1015.73 1015.85 1015.93 1016.09 1016.21 1016.33 1016.41 1016.45 1016.57 1016.61 1016.65 1016.69 1016.73 1016.81 1016.89 1016.97 1017.01 1017.01 1017.01 1017.05 1017.05 1017.09 1017.09 1017.13 1017.13 1017.09 1017.13 1017.21 1017.17 1017.05 1016.97 1016.89 1016.89 1017.01 1017.01 1017.09 1017.05 1017.13 1017.09 1017.01 1017.01 1017.05 1017.09 1017.09
1012.69 1012.93 1013.17 1013.37 1013.53 1013.69 1013.93 1014.09 1014.29 1014.45 1014.61 1014.77 1014.89 1015.05 1015.21 1015.37 1015.57 1015.73 1015.85 1015.93 1016.05 1016.17 1016.25 1016.41 1016.37 1016.41 1016.49 1016.61 1016.69 1016.69 1016.73 1016.81 1016.89 1016.97 1017.01 1017.05 1017.09 1017.09 1017.09 1017.13 1017.17 1017.17 1017.21 1017.29 1017.29 1017.17 1017.13 1017.05 1017.01 1016.89 1016.81 1016.89 1017.01 1017.05 1017.09 1017.09 1017.17 1017.13 1016.93 1016.89 1016.89 1016.93
1012.69 1012.97 1013.21 1013.37 1013.61 1013.77 1013.89 1014.09 1014.29 1014.49 1014.65 1014.85 1015.01 1015.13 1015.29 1015.49 1015.65 1015.85 1015.97 1016.05 1016.17 1016.21 1016.37 1016.45 1016.45 1016.45 1016.61 1016.69 1016.81 1016.85 1016.89 1016.93 1017.01 1017.09 1017.05 1017.21 1017.21 1017.21 1017.29 1017.33 1017.33 1017.29 1017.37 1017.41 1017.37 1017.33 1017.25 1017.13 1017.09 1017.05 1017.01 1016.89 1016.85 1016.93 1016.97 1016.97 1017.01 1017.13 1017.05 1016.81 1016.69 1016.65
1012.77 1013.01 1013.17 1013.29 1013.53 1013.69 1013.85 1014.17 1014.37 1014.49 1014.69 1014.89 1015.05 1015.21 1015.37 1015.57 1015.77 1015.97 1016.09 1016.21 1016.25 1016.37 1016.53 1016.57 1016.57 1016.61 1016.73 1016.77 1016.93 1017.01 1017.05 1017.13 1017.21 1017.25 1017.17 1017.25 1017.25 1017.29 1017.37 1017.41 1017.45 1017.41 1017.37 1017.37 1017.41 1017.41 1017.41 1017.37 1017.29 1017.17 1017.05 1016.93 1016.93 1016.85 1016.85 1016.89 1016.93 1016.97 1017.05 1017.01 1016.69 1016.57
1012.73 1012.97 1013.09 1013.17 1013.41 1013.61 1013.89 1014.01 1014.17 1014.37 1014.65 1014.93 1015.05 1015.29 1015.49 1015.65 1015.81 1016.01 1016.21 1016.29 1016.45 1016.57 1016.65 1016.69 1016.69 1016.73 1016.81 1016.81 1016.97 1017.05 1017.13 1017.17 1017.25 1017.29 1017.21 1017.29 1017.29 1017.29 1017.37 1017.41 1017.45 1017.45 1017.41 1017.37 1017.37 1017.33 1017.29 1017.25 1017.21 1017.17 1017.05 1016.97 1016.89 1016.81 1016.73 1016.77 1016.81 1016.81 1016.85 1016.89 1016.77 1016.57
1012.61 1012.77 1012.93 1013.01 1013.25 1013.53 1013.69 1013.85 1014.05 1014.25 1014.53 1014.77 1015.09 1015.33 1015.45 1015.61 1015.77 1016.01 1016.17 1016.29 1016.37 1016.57 1016.69 1016.81 1016.77 1016.77 1016.81 1016.85 1016.97 1017.01 1017.09 1017.17 1017.21 1017.21 1017.17 1017.17 1017.25 1017.25 1017.29 1017.29 1017.33 1017.33 1017.37 1017.33 1017.37 1017.29 1017.25 1017.21 1017.17 1017.13 1017.09 1016.93 1016.77 1016.69 1016.65 1016.65 1016.65 1016.57 1016.57 1016.65 1016.65 1016.49
1012.49 1012.69 1012.73 1012.81 1013.13 1013.33 1013.53 1013.77 1013.97 1014.21 1014.49 1014.61 1015.01 1015.17 1015.29 1015.49 1015.73 1015.93 1016.13 1016.25 1016.33 1016.57 1016.69 1016.77 1016.81 1016.77 1016.81 1016.85 1016.89 1016.97 1017.05 1017.13 1017.17 1017.17 1017.17 1017.21 1017.17 1017.21 1017.21 1017.21 1017.25 1017.25 1017.25 1017.25 1017.21 1017.21 1017.21 1017.17 1017.13 1017.09 1017.09 1016.97 1016.77 1016.57 1016.45 1016.45 1016.49 1016.45 1016.41 1016.37 1016.41 1016.37
1012.33 1012.45 1012.57 1012.69 1013.01 1013.25 1013.45 1013.77 1013.93 1014.13 1014.33 1014.53 1014.89 1015.05 1015.25 1015.49 1015.65 1015.89 1016.13 1016.17 1016.21 1016.37 1016.53 1016.65 1016.73 1016.77 1016.81 1016.89 1016.89 1016.97 1017.05 1017.05 1017.09 1017.09 1017.17 1017.21 1017.13 1017.17 1017.17 1017.21 1017.21 1017.17 1017.13 1017.09 1017.09 1017.01 1017.01 1017.05 1017.01 1016.93 1016.89 1016.85 1016.69 1016.53 1016.37 1016.29 1016.29 1016.29 1016.25 1016.25 1016.21 1016.17
1012.05 1012.21 1012.41 1012.65 1012.89 1013.21 1013.37 1013.65 1013.85 1014.01 1014.25 1014.49 1014.69 1014.93 1015.17 1015.41 1015.65 1015.81 1015.93 1015.97 1016.09 1016.17 1016.37 1016.53 1016.65 1016.73 1016.81 1016.81 1016.89 1016.97 1016.97 1017.01 1017.13 1017.05 1017.05 1017.09 1017.01 1017.01 1017.09 1017.17 1017.17 1017.21 1017.21 1017.21 1017.17 1017.05 1017.05 1017.13 1017.09 1017.05 1016.89 1016.77 1016.57 1016.41 1016.29 1016.17 1016.17 1016.13 1016.17 1016.17 1016.13 1016.13
1011.85 1012.09 1012.41 1012.73 1012.97 1013.33 1013.53 1013.65 1013.81 1014.01 1014.25 1014.37 1014.53 1014.85 1015.09 1015.33 1015.53 1015.65 1015.69 1015.85 1015.97 1016.13 1016.25 1016.41 1016.49 1016.65 1016.77 1016.81 1016.85 1016.85 1016.89 1017.01 1017.01 1016.89 1016.93 1016.97 1016.97 1016.89 1016.93 1016.97 1017.01 1017.09 1017.13 1017.21 1017.25 1017.17 1017.13 1017.25 1017.21 1016.97 1016.81 1016.69 1016.53 1016.45 1016.33 1016.21 1016.17 1016.09 1016.05 1016.05 1016.01 1016.01
1011.69 1012.05 1012.37 1012.73 1013.01 1013.33 1013.61 1013.81 1013.97 1014.13 1014.17 1014.25 1014.45 1014.69 1015.01 1015.17 1015.33 1015.45 1015.57 1015.69 1015.85 1016.01 1016.05 1016.25 1016.37 1016.45 1016.57 1016.69 1016.73 1016.81 1016.89 1016.93 1016.89 1016.85 1016.89 1016.89 1016.85 1016.89 1016.93 1017.01 1017.09 1017.09 1017.09 1017.13 1017.13 1017.13 1017.09 1017.05 1016.97 1016.85 1016.73 1016.53 1016.41 1016.37 1016.29 1016.25 1016.13 1016.05 1016.05 1015.97 1015.93 1015.89
1011.61 1011.89 1012.17 1012.45 1012.77 1013.25 1013.57 1013.85 1014.01 1014.09 1014.13 1014.21 1014.37 1014.65 1014.85 1014.97 1015.13 1015.25 1015.37 1015.49 1015.61 1015.77 1015.93 1016.05 1016.13 1016.33 1016.41 1016.61 1016.69 1016.77 1016.81 1016.81 1016.81 1016.81 1016.81 1016.85 1016.89 1016.89 1016.85 1016.81 1016.85 1016.85 1016.93 1017.01 1017.09 1017.09 1017.09 1017.05 1016.89 1016.77 1016.61 1016.49 1016.41 1016.29 1016.21 1016.17 1016.09 1016.01 1015.93 1015.89 1015.81 1015.81
1011.45 1011.85 1012.05 1012.37 1012.61 1012.93 1013.25 1013.61 1013.89 1014.05 1014.13 1014.17 1014.37 1014.57 1014.73 1014.85 1014.97 1015.05 1015.17 1015.33 1015.49 1015.69 1015.85 1015.89 1016.01 1016.17 1016.37 1016.45 1016.65 1016.73 1016.69 1016.65 1016.65 1016.61 1016.69 1016.73 1016.73 1016.77 1016.81 1016.85 1016.89 1017.01 1017.01 1017.05 1017.09 1017.05 1017.05 1017.01 1016.97 1016.81 1016.65 1016.49 1016.45 1016.25 1016.17 1016.09 1015.93 1015.89 1015.85 1015.73 1015.73 1015.69
1011.41 1011.77 1011.97 1012.17 1012.41 1012.69 1012.97 1013.29 1013.61 1013.85 1014.05 1014.17 1014.33 1014.53 1014.65 1014.73 1014.85 1015.01 1015.17 1015.33 1015.41 1015.57 1015.69 1015.81 1015.93 1016.05 1016.25 1016.29 1016.33 1016.41 1016.45 1016.53 1016.53 1016.57 1016.65 1016.69 1016.73 1016.85 1016.89 1016.89 1016.89 1016.97 1017.17 1017.13 1017.09 1017.05 1017.01 1017.05 1016.93 1016.81 1016.61 1016.49 1016.37 1016.29 1016.25 1016.13 1016.01 1015.85 1015.69 1015.69 1015.65 1015.53
1011.61 1011.77 1011.97 1012.13 1012.37 1012.61 1012.85 1013.17 1013.45 1013.69 1013.93 1014.09 1014.33 1014.49 1014.61 1014.69 1014.89 1015.09 1015.17 1015.25 1015.29 1015.41 1015.57 1015.73 1015.81 1015.97 1016.09 1016.21 1016.25 1016.33 1016.37 1016.41 1016.49 1016.57 1016.65 1016.69 1016.73 1016.81 1016.85 1016.97 1016.89 1016.97 1017.09 1017.21 1017.17 1017.21 1017.09 1017.01 1016.97 1016.81 1016.57 1016.41 1016.25 1016.21 1016.17 1016.05 1015.93 1015.81 1015.65 1015.69 1015.61 1015.53
1011.85 1011.97 1012.05 1012.13 1012.25 1012.49 1012.77 1013.01 1013.33 1013.53 1013.77 1014.05 1014.25 1014.41 1014.57 1014.73 1014.97 1015.05 1015.09 1015.17 1015.17 1015.33 1015.49 1015.69 1015.81 1015.89 1016.05 1016.13 1016.17 1016.17 1016.25 1016.33 1016.37 1016.49 1016.61 1016.69 1016.89 1017.01 1017.01 1016.97 1017.05 1016.93 1017.01 1017.09 1017.17 1017.21 1017.17 1017.05 1016.97 1016.85 1016.61 1016.41 1016.21 1016.13 1016.05 1015.97 1015.85 1015.77 1015.85 1015.77 1015.61 1015.45
1012.13 1012.33 1012.41 1012.29 1012.33 1012.45 1012.69 1013.01 1013.25 1013.53 1013.81 1014.05 1014.25 1014.45 1014.57 1014.81 1014.93 1015.05 1015.05 1015.05 1015.09 1015.25 1015.45 1015.65 1015.81 1015.93 1016.09 1016.17 1016.21 1016.21 1016.17 1016.25 1016.33 1016.45 1016.61 1016.81 1016.89 1016.89 1016.89 1016.93 1017.05 1017.05 1016.97 1016.97 1017.05 1017.05 1017.13 1017.09 1017.05 1016.93 1016.77 1016.49 1016.29 1016.13 1015.97 1015.89 1015.89 1015.89 1015.85 1015.73 1015.57 1015.41
1012.29 1012.29 1012.41 1012.41 1012.41 1012.61 1012.77 1013.13 1013.61 1013.85 1014.05 1014.21 1014.37 1014.57 1014.69 1014.73 1014.97 1015.09 1015.05 1015.05 1015.09 1015.25 1015.49 1015.69 1015.81 1015.93 1016.05 1016.21 1016.25 1016.21 1016.21 1016.25 1016.33 1016.49 1016.65 1016.81 1016.93 1016.89 1016.97 1017.01 1017.05 1017.17 1017.17 1017.01 1016.97 1017.01 1017.01 1017.09 1017.05 1016.93 1016.81 1016.53 1016.33 1016.21 1015.97 1015.93 1015.93 1015.85 1015.73 1015.61 1015.53 1015.45
1012.29 1012.13 1012.29 1012.45 1012.57 1012.65 1012.89 1013.33 1013.61 1013.85 1014.05 1014.25 1014.37 1014.53 1014.65 1014.85 1015.01 1015.05 1015.05 1015.09 1015.17 1015.33 1015.57 1015.73 1015.85 1015.97 1016.17 1016.25 1016.29 1016.21 1016.25 1016.33 1016.33 1016.45 1016.61 1016.81 1016.81 1016.85 1016.97 1017.09 1017.13 1017.17 1017.29 1017.37 1017.25 1017.05 1017.05 1017.13 1017.21 1017.09 1016.77 1016.73 1016.45 1016.09 1015.97 1015.93 1015.89 1015.81 1015.69 1015.57 1015.53 1015.45
1012.53 1012.21 1012.21 1012.41 1012.49 1012.49 1012.37 1012.41 1012.81 1013.49 1013.81 1014.29 1014.49 1014.61 1014.81 1014.93 1015.01 1015.09 1015.13 1015.21 1015.33 1015.37 1015.57 1015.77 1015.85 1015.97 1016.13 1016.25 1016.33 1016.29 1016.29 1016.37 1016.41 1016.53 1016.65 1016.69 1016.77 1016.85 1016.97 1017.05 1017.13 1017.29 1017.33 1017.37 1017.41 1017.13 1017.13 1017.09 1017.49 1017.81 1017.65 1017.21 1016.73 1016.37 1015.97 1015.97 1015.89 1015.85 1015.53 1015.49 1015.45 1015.41
1012.33 1012.21 1012.13 1012.21 1012.45 1012.49 1012.45 1012.53 1012.77 1013.45 1013.73 1014.37 1014.45 1014.37 1014.41 1014.65 1014.89 1015.09 1015.17 1015.25 1015.29 1015.37 1015.57 1015.73 1015.81 1016.05 1016.17 1016.25 1016.21 1016.17 1016.25 1016.33 1016.45 1016.49 1016.73 1016.85 1016.81 1016.89 1016.93 1017.01 1017.01 1017.17 1017.37 1017.37 1017.37 1017.17 1017.21 1017.21 1017.77 1017.53 1017.73 1017.81 1017.49 1017.33 1016.61 1016.21 1016.01 1015.89 1015.65 1015.53 1015.45 1015.29
1011.65 1011.81 1011.85 1011.97 1012.21 1012.37 1012.41 1012.49 1012.77 1013.21 1013.77 1014.01 1014.45 1014.53 1014.65 1014.85 1015.05 1015.13 1015.21 1015.17 1015.21 1015.33 1015.53 1015.69 1015.73 1016.01 1016.05 1016.21 1016.21 1016.17 1016.17 1016.29 1016.41 1016.41 1016.61 1016.85 1016.85 1016.85 1016.89 1016.97 1017.05 1017.13 1017.25 1017.61 1017.65 1017.49 1017.25 1017.21 1017.41 1017.61 1018.05 1018.17 1017.93 1017.89 1017.93 1017.21 1016.97 1016.25 1015.77 1015.65 1015.53 1015.33
1010.89 1011.33 1011.41 1011.73 1012.09 1012.29 1012.49 1012.81 1013.21 1013.61 1013.85 1014.29 1014.61 1014.81 1014.97 1015.21 1015.21 1015.17 1015.17 1015.25 1015.21 1015.37 1015.57 1015.65 1015.77 1015.97 1016.01 1016.21 1016.25 1016.13 1016.09 1016.25 1016.37 1016.49 1016.53 1016.69 1016.77 1016.85 1016.93 1017.01 1017.09 1017.17 1017.25 1017.49 1017.77 1017.73 1017.45 1017.33 1017.37 1017.37 1017.73 1018.13 1018.17 1018.13 1018.05 1017.65 1017.29 1016.49 1015.81 1015.81 1015.53 1015.37
1010.37 1011.01 1011.29 1011.57 1011.89 1012.01 1012.29 1012.65 1013.29 1013.77 1014.41 1014.61 1015.05 1015.17 1015.17 1015.13 1015.29 1015.29 1015.21 1015.05 1015.25 1015.41 1015.53 1015.61 1015.81 1016.01 1016.01 1016.09 1016.17 1016.17 1016.17 1016.29 1016.45 1016.57 1016.57 1016.69 1016.77 1016.85 1016.93 1016.97 1017.05 1017.05 1017.17 1017.25 1017.45 1017.73 1017.81 1017.41 1017.33 1017.37 1017.29 1017.41 1017.65 1018.09 1017.85 1017.37 1017.53 1017.29 1015.93 1015.69 1015.53 1015.37
1009.93 1010.57 1011.05 1011.37 1011.57 1011.77 1012.25 1012.53 1012.81 1013.17 1013.57 1014.13 1014.61 1014.89 1014.73 1014.73 1014.89 1015.01 1014.97 1015.09 1015.29 1015.33 1015.37 1015.57 1015.89 1016.01 1016.05 1016.05 1016.21 1016.29 1016.33 1016.33 1016.45 1016.53 1016.61 1016.69 1016.85 1016.89 1016.93 1016.97 1016.97 1017.01 1017.05 1017.21 1017.33 1017.73 1017.85 1017.85 1017.45 1017.37 1017.29 1017.29 1017.29 1017.21 1017.33 1017.57 1017.65 1017.21 1016.93 1015.93 1015.61 1015.45
1009.69 1010.25 1010.69 1011.09 1011.45 1011.53 1012.05 1012.53 1012.89 1013.25 1013.65 1014.05 1014.33 1014.65 1014.81 1014.85 1014.85 1014.85 1015.01 1015.25 1015.33 1015.37 1015.41 1015.61 1015.97 1016.09 1016.05 1016.09 1016.21 1016.33 1016.33 1016.37 1016.49 1016.61 1016.69 1016.81 1016.93 1016.97 1017.01 1017.05 1017.05 1017.09 1017.13 1017.21 1017.37 1017.65 1017.77 1017.81 1017.93 1017.77 1017.41 1017.37 1017.25 1017.13 1017.13 1017.25 1017.21 1017.37 1017.25 1017.05 1016.05 1015.25
1009.97 1010.29 1010.73 1010.97 1011.29 1011.61 1011.85 1012.37 1012.77 1013.17 1013.69 1014.01 1014.29 1014.61 1014.77 1014.89 1014.97 1014.93 1015.21 1015.41 1015.45 1015.45 1015.61 1015.89 1016.01 1016.01 1016.13 1016.21 1016.29 1016.37 1016.41 1016.45 1016.57 1016.73 1016.81 1016.97 1017.01 1017.05 1017.09 1017.13 1017.09 1017.09 1017.13 1017.25 1017.37 1017.49 1017.61 1017.73 1017.73 1017.69 1017.65 1017.49 1017.41 1017.33 1017.21 1017.13 1017.13 1017.21 1017.29 1017.01 1016.61 1016.49
1010.53 1010.65 1010.81 1011.09 1011.37 1011.77 1012.05 1012.37 1012.85 1013.21 1013.57 1014.17 1014.45 1014.77 1014.81 1015.01 1015.09 1015.17 1015.45 1015.61 1015.61 1015.69 1015.93 1016.13 1016.21 1016.17 1016.29 1016.41 1016.49 1016.45 1016.49 1016.57 1016.65 1016.81 1016.93 1017.05 1017.09 1017.13 1017.17 1017.17 1017.17 1017.13 1017.17 1017.17 1017.37 1017.45 1017.53 1017.53 1017.53 1017.49 1017.53 1017.57 1017.61 1017.49 1017.37 1017.17 1017.13 1017.13 1017.05 1016.97 1016.93 1016.53
1010.81 1010.97 1011.05 1011.25 1011.45 1011.85 1012.17 1012.41 1012.73 1013.13 1013.53 1014.05 1014.45 1014.69 1014.97 1015.21 1015.33 1015.45 1015.65 1015.77 1015.77 1015.97 1016.17 1016.33 1016.41 1016.53 1016.53 1016.57 1016.61 1016.57 1016.61 1016.69 1016.77 1016.89 1017.05 1017.09 1017.17 1017.25 1017.29 1017.25 1017.21 1017.13 1017.17 1017.25 1017.37 1017.41 1017.49 1017.49 1017.41 1017.41 1017.37 1017.41 1017.49 1017.53 1017.57 1017.57 1017.41 1017.21 1017.13 1017.01 1016.77 1016.45
1011.05 1011.21 1011.45 1011.57 1011.77 1012.05 1012.29 1012.57 1012.77 1013.09 1013.57 1013.93 1014.25 1014.57 1014.73 1015.05 1015.29 1015.49 1015.61 1015.77 1015.89 1016.17 1016.49 1016.53 1016.65 1016.73 1016.81 1016.77 1016.73 1016.81 1016.77 1016.77 1016.89 1017.01 1017.17 1017.21 1017.25 1017.29 1017.33 1017.25 1017.21 1017.25 1017.29 1017.37 1017.41 1017.45 1017.53 1017.57 1017.53 1017.53 1017.53 1017.45 1017.53 1017.57 1017.65 1017.73 1017.57 1017.33 1017.17 1016.97 1016.81 1016.57
1011.37 1011.45 1011.61 1011.81 1012.05 1012.25 1012.45 1012.73 1012.97 1013.29 1013.61 1013.89 1014.13 1014.33 1014.53 1014.85 1015.09 1015.33 1015.53 1015.73 1016.01 1016.49 1016.69 1016.81 1016.89 1016.89 1017.01 1017.01 1016.97 1017.01 1016.93 1016.97 1017.09 1017.17 1017.21 1017.21 1017.29 1017.33 1017.33 1017.33 1017.37 1017.37 1017.41 1017.45 1017.57 1017.61 1017.69 1017.89 1017.97 1018.05 1017.97 1017.77 1017.73 1017.93 1018.13 1018.01 1017.73 1017.49 1017.21 1016.97 1016.81 1016.65
1011.45 1011.65 1011.81 1012.01 1012.21 1012.45 1012.65 1012.89 1013.13 1013.41 1013.69 1013.93 1014.17 1014.33 1014.53 1014.73 1015.05 1015.17 1015.37 1015.61 1016.01 1016.49 1016.77 1016.85 1016.97 1017.05 1017.13 1017.21 1017.21 1017.17 1017.13 1017.17 1017.21 1017.25 1017.21 1017.29 1017.37 1017.41 1017.41 1017.45 1017.49 1017.49 1017.57 1017.65 1017.73 1017.89 1018.01 1018.17 1018.33 1018.45 1018.33 1018.25 1018.13 1018.25 1018.37 1018.25 1018.05 1017.73 1017.57 1017.25 1017.01 1016.77
1011.49 1011.77 1011.97 1012.17 1012.37 1012.61 1012.85 1013.09 1013.33 1013.57 1013.81 1013.97 1014.21 1014.45 1014.69 1014.81 1014.97 1015.21 1015.41 1015.53 1016.01 1016.45 1016.73 1016.93 1016.97 1017.13 1017.25 1017.37 1017.49 1017.41 1017.33 1017.29 1017.29 1017.29 1017.33 1017.33 1017.41 1017.45 1017.49 1017.53 1017.61 1017.65 1017.73 1017.89 1018.01 1018.01 1018.21 1018.37 1018.57 1018.73 1018.69 1018.65 1018.61 1018.65 1018.61 1018.53 1018.41 1018.25 1018.01 1017.77 1017.45 1017.05
1011.37 1011.65 1011.93 1012.25 1012.49 1012.69 1012.97 1013.21 1013.45 1013.73 1013.97 1014.13 1014.33 1014.53 1014.81 1014.97 1015.13 1015.21 1015.41 1015.57 1016.09 1016.49 1016.73 1016.89 1017.09 1017.21 1017.37 1017.45 1017.53 1017.57 1017.49 1017.41 1017.37 1017.41 1017.41 1017.41 1017.41 1017.49 1017.57 1017.69 1017.85 1017.85 1018.05 1018.09 1018.17 1018.25 1018.49 1018.53 1018.77 1018.89 1018.97 1018.97 1018.93 1018.97 1018.81 1018.73 1018.57 1018.45 1018.29 1018.09 1017.81 1017.45
1011.41 1011.69 1012.05 1012.29 1012.49 1012.73 1013.01 1013.29 1013.57 1013.73 1013.97 1014.17 1014.37 1014.61 1014.85 1015.09 1015.25 1015.45 1015.49 1015.69 1016.13 1016.57 1016.81 1016.97 1017.17 1017.33 1017.45 1017.61 1017.69 1017.61 1017.57 1017.53 1017.49 1017.53 1017.53 1017.49 1017.49 1017.57 1017.69 1017.93 1018.05 1018.13 1018.25 1018.25 1018.25 1018.61 1018.73 1018.81 1019.01 1019.05 1019.09 1019.13 1019.13 1019.05 1018.93 1018.81 1018.65 1018.49 1018.29 1018.09 1017.89 1017.65
Wind_Speed
8 8 8 7 7 7 10 16 13 15 15 14 13 13 13 13 11 10 9 10 8 4 4 3 5 3 10 5 7 8 8 7 6 5 4 4 3 2 1 1 2 3 4 4 5 6 6 6 6 5 3 3 4 2 1 3 4 4 4 4 4 4
9 9 8 6 6 6 8 10 7 8 7 9 11 11 8 5 8 4 10 7 4 4 3 3 4 6 2 4 6 9 7 7 6 5 4 3 2 1 2 3 4 4 5 6 4 2 3 5 6 5 4 4 3 1 2 1 4 5 4 4 4 5
9 9 9 7 6 6 7 6 6 6 6 8 8 7 4 5 3 4 4 4 4 4 4 3 3 4 3 6 4 8 7 7 6 5 3 2 2 2 3 4 5 5 6 7 4 2 3 4 4 5 4 2 2 1 1 1 2 4 5 4 4 8
9 9 8 7 6 6 6 6 5 5 5 5 4 5 4 5 4 3 4 4 4 3 3 3 6 9 8 4 5 7 7 7 6 5 4 0 3 4 5 6 6 7 5 4 4 5 4 4 4 4 4 2 1 0 1 1 2 4 5 5 5 10
9 9 7 7 7 7 7 6 6 6 5 5 5 4 4 4 4 3 3 4 3 3 3 4 1 3 3 4 2 2 2 2 0 0 0 0 1 2 3 3 4 4 3 3 4 5 5 6 5 6 6 6 5 1 1 2 3 3 4 5 5 12
9 9 7 7 7 8 8 6 6 6 6 4 5 5 4 4 4 4 3 3 2 3 3 2 1 3 3 3 3 2 1 1 1 2 1 1 2 2 2 2 3 4 4 3 3 3 3 3 5 5 5 5 5 5 4 3 3 4 4 5 5 12
9 8 8 7 6 7 6 6 6 6 7 6 5 5 5 4 4 3 3 3 4 3 2 2 2 3 3 4 3 3 2 2 2 2 2 2 2 2 1 2 2 3 3 3 3 3 3 3 3 4 4 5 5 5 5 3 3 4 5 5 6 12
9 9 8 8 8 7 7 7 7 8 7 7 6 5 4 5 4 4 3 3 3 3 4 3 2 2 3 3 3 2 2 2 3 3 2 2 2 2 2 2 2 3 3 3 3 2 3 3 3 3 4 5 5 5 5 4 4 4 5 5 6 9
10 10 7 8 9 6 7 7 7 7 7 7 6 5 5 5 4 4 3 4 3 4 3 4 3 3 2 3 2 2 2 3 2 3 2 2 2 3 3 2 3 4 3 3 3 3 2 3 3 3 3 5 4 5 4 4 4 4 4 5 6 8
11 10 9 9 8 7 8 8 7 7 6 6 6 5 5 5 4 4 4 4 4 4 5 5 4 3 4 4 2 2 2 3 4 2 2 3 3 3 3 2 3 4 3 3 3 4 1 2 2 2 3 4 4 4 4 4 4 5 5 5 5 6
11 10 9 9 8 8 8 7 7 6 7 6 6 5 5 4 4 4 5 5 4 4 4 3 4 4 3 3 3 3 4 3 3 4 3 4 3 4 3 3 2 2 2 3 4 4 4 4 4 3 3 4 4 4 4 4 3 3 4 5 5 5
11 10 10 8 8 8 8 8 7 6 7 6 6 6 5 5 5 5 4 5 4 4 3 4 5 4 4 4 4 4 2 2 4 4 3 4 4 3 3 3 2 3 3 3 3 2 2 3 4 3 2 3 3 4 5 5 4 3 3 4 5 5
11 10 10 9 8 6 5 5 6 6 6 6 6 5 5 5 5 5 5 4 4 4 3 5 6 6 5 5 3 3 3 4 4 2 2 3 3 2 2 3 4 3 3 2 0 0 1 1 2 3 3 4 4 4 3 3 5 3 4 4 5 5
10 11 11 9 8 7 6 5 5 5 6 6 6 6 6 5 6 5 5 5 5 5 4 4 6 5 5 4 4 4 3 4 4 4 3 3 3 3 1 1 2 3 3 2 2 2 2 3 4 3 4 3 3 4 5 3 4 4 3 4 5 4
11 11 11 10 10 9 7 7 6 6 5 6 5 6 6 6 6 6 5 5 5 5 4 4 4 6 5 5 5 5 5 4 4 3 3 1 1 1 1 0 1 3 3 2 1 1 1 3 3 5 4 4 4 5 4 5 4 4 4 4 3 5
12 12 11 11 10 9 9 8 6 5 5 5 5 6 6 6 6 5 5 5 5 5 4 4 4 4 5 4 4 3 2 1 1 2 1 1 1 1 0 1 0 1 2 3 3 3 2 4 4 5 4 5 5 4 5 5 6 6 5 3 4 5
11 12 11 11 10 8 8 7 7 6 6 6 6 6 6 5 5 5 5 5 5 5 4 4 4 4 5 3 3 2 1 2 2 3 2 1 1 0 1 2 3 1 0 2 3 3 4 3 4 5 5 5 5 4 5 5 5 5 5 4 4 4
8 9 9 10 10 9 8 8 6 6 6 6 5 5 5 5 5 6 6 5 5 4 4 4 4 4 3 3 3 3 2 2 3 3 2 1 1 2 2 2 3 2 2 0 2 3 4 4 4 5 6 6 6 5 5 5 5 4 4 5 5 5
7 6 7 8 8 8 8 6 5 6 6 5 4 4 5 5 5 5 5 5 5 5 3 3 3 3 4 3 3 2 2 2 3 3 2 1 1 1 2 3 1 2 1 1 2 2 3 3 4 4 5 6 6 6 6 5 3 3 3 4 5 5
5 7 6 7 7 7 7 7 7 5 6 5 5 5 3 5 5 5 4 4 4 4 1 2 3 3 3 3 3 2 3 3 3 3 2 0 0 1 0 0 0 0 2 2 0 1 1 2 3 3 4 6 5 5 6 3 3 2 3 3 4 4
6 7 8 8 8 9 9 7 5 7 7 5 6 5 5 3 4 3 3 3 3 3 2 0 1 3 3 2 2 2 3 3 3 4 3 2 2 1 0 0 0 0 0 1 1 1 1 1 2 4 3 4 5 3 4 3 2 2 5 4 3 3
5 6 7 6 7 8 7 8 8 7 5 6 6 6 4 3 3 3 3 3 2 2 1 0 1 2 3 3 3 3 3 3 3 3 3 2 2 2 1 0 1 1 0 0 0 1 3 3 3 3 6 7 3 4 2 1 1 4 7 5 4 3
9 7 7 7 7 7 5 6 7 5 8 4 0 1 3 3 3 3 3 2 2 2 0 0 1 2 3 2 3 3 3 4 3 4 4 2 2 2 2 2 2 2 1 1 0 1 2 2 1 3 1 2 4 6 4 4 2 6 8 5 4 5
10 9 9 8 8 5 6 6 6 8 6 4 4 4 4 4 3 3 2 1 1 2 1 1 1 3 3 2 3 3 4 3 3 3 5 4 2 2 1 2 2 1 1 1 2 1 1 1 1 3 5 1 3 1 5 3 5 5 3 3 6 7
13 12 11 10 8 8 8 8 8 7 6 7 5 3 4 3 3 3 3 2 3 2 2 2 1 3 3 3 2 3 4 4 4 2 3 3 3 1 1 1 2 2 1 1 2 1 1 2 2 1 1 2 3 3 2 4 6 6 1 5 4 5
12 10 11 10 10 10 9 10 9 9 7 4 5 5 7 8 5 5 5 3 2 3 3 2 2 2 3 3 3 3 4 5 4 3 2 3 2 2 2 2 1 2 2 1 2 1 1 2 1 1 2 1 2 3 6 3 5 5 3 4 5 4
14 12 10 10 11 10 9 9 11 10 9 8 8 4 2 3 6 4 3 3 3 3 3 3 2 3 4 5 5 4 4 4 4 3 3 4 4 3 3 2 1 3 2 3 2 1 1 2 4 1 1 0 2 3 3 3 4 5 8 2 1 4
13 12 11 11 11 10 10 8 8 7 7 7 7 7 4 4 3 3 4 2 2 3 3 4 5 4 5 6 5 5 4 5 5 3 3 4 3 2 2 2 2 2 2 2 2 1 1 0 1 2 2 3 2 3 3 3 6 5 7 8 10 3
11 11 10 11 10 9 9 9 8 7 7 4 4 5 4 3 4 4 5 2 3 5 6 4 3 6 5 5 5 5 5 5 5 4 3 4 3 3 3 3 3 4 3 2 1 1 1 0 1 1 1 1 2 2 4 4 3 3 3 5 7 6
8 8 9 10 9 8 8 8 8 7 8 6 5 4 4 5 4 4 5 4 5 6 5 5 4 5 5 4 4 4 5 5 5 4 4 3 3 4 3 3 3 3 3 4 2 1 1 0 0 1 0 1 1 2 2 2 1 2 4 5 8 9
6 5 7 9 9 9 8 7 8 8 9 8 7 7 6 4 4 4 5 5 6 6 4 5 5 4 4 4 4 4 6 5 5 4 4 4 4 3 2 3 2 3 4 4 3 3 2 1 1 2 2 1 2 2 4 3 5 3 4 4 6 6
7 7 6 7 8 8 7 6 6 8 8 8 9 8 8 8 7 6 6 7 6 6 4 4 4 5 3 3 5 5 5 5 5 5 5 3 3 2 2 2 4 4 3 3 3 3 3 5 5 4 4 4 5 5 5 5 5 6 5 5 7 8
8 7 7 7 7 7 7 7 7 7 7 7 8 8 8 8 7 7 7 7 7 6 5 5 4 5 3 3 4 5 5 6 5 4 3 3 3 3 3 3 3 3 4 5 4 4 6 7 7 6 4 4 4 4 4 4 5 5 5 6 6 6
9 7 7 7 7 7 6 6 6 6 7 7 7 7 6 8 7 6 6 8 7 6 5 5 5 4 3 3 3 4 5 5 4 3 4 4 3 3 3 4 3 4 5 5 6 7 7 7 7 7 5 4 5 4 4 4 5 5 6 6 5 6
10 9 9 8 7 7 6 5 5 5 6 5 6 5 4 5 7 7 5 8 7 5 6 4 5 4 3 4 4 4 4 5 4 4 3 3 4 3 3 3 4 5 6 5 5 7 7 8 8 8 7 6 5 5 5 5 5 5 5 5 6 6
11 10 9 8 7 7 6 6 5 6 5 5 4 5 5 5 4 5 6 8 7 5 5 5 4 5 3 4 4 4 4 4 3 4 3 4 4 4 4 5 5 6 6 4 7 8 6 8 8 8 7 6 5 5 4 5 4 4 4 5 5 6
11 10 9 8 8 7 7 7 5 6 6 6 6 7 7 6 6 5 7 7 7 6 5 5 5 4 5 3 4 4 4 4 4 3 4 4 4 4 5 5 5 5 5 5 8 8 6 7 6 5 6 6 5 5 5 4 4 4 4 4 4 5
Wind_Direction
138 138 141 142 141 142 149 149 147 146 147 147 145 146 146 145 142 141 135 138 132 103 110 133 149 159 167 164 166 160 171 167 168 162 168 177 178 196 254 299 313 313 315 312 318 331 332 325 325 332 15 43 77 18 339 122 145 153 167 181 173 184
142 144 144 143 142 144 149 147 143 144 143 149 148 147 146 138 141 128 141 132 114 118 109 119 138 160 144 165 175 177 175 177 179 175 180 198 216 246 291 305 313 313 309 307 318 331 311 312 320 327 17 44 89 28 355 87 152 167 177 190 177 199
142 145 144 142 144 146 142 138 141 137 141 143 149 140 131 134 110 129 117 124 125 120 133 143 146 147 139 164 174 179 180 182 187 189 190 209 254 273 288 300 302 304 304 315 337 320 308 315 323 335 356 61 54 100 327 351 207 180 184 190 184 203
148 148 149 147 145 145 142 140 137 136 134 135 127 129 125 122 132 129 133 127 130 139 141 152 174 162 164 157 177 177 182 187 195 202 206 279 328 322 309 314 323 324 340 343 328 324 331 331 335 331 331 356 93 142 198 239 223 231 193 196 190 204
145 153 151 146 150 149 146 144 141 139 138 130 126 127 126 130 136 135 138 136 137 148 154 176 219 146 128 145 159 170 198 186 200 276 289 16 309 298 341 335 329 330 335 337 330 325 337 334 341 344 337 326 321 297 215 215 211 235 235 215 199 201
147 157 158 150 154 151 149 149 149 146 142 136 138 136 134 139 140 146 144 141 138 144 164 188 160 137 141 142 158 174 194 187 212 227 255 225 277 315 327 331 321 317 315 326 316 315 319 318 315 310 301 300 301 302 285 245 219 211 236 248 226 206
150 158 157 150 147 151 153 150 149 152 151 150 147 145 146 148 155 151 150 155 153 166 188 195 176 155 152 157 168 172 188 188 203 234 243 222 270 300 306 299 299 285 285 291 299 292 287 279 264 286 293 290 281 274 270 248 219 219 219 235 243 220
158 164 156 151 153 155 154 153 155 161 158 157 153 162 152 166 155 156 164 179 172 175 184 199 203 177 178 161 181 178 171 189 206 220 218 206 242 279 286 276 283 289 289 290 294 275 258 260 275 270 290 290 291 276 261 245 218 216 211 217 231 231
166 166 159 156 154 157 154 154 158 163 154 169 161 166 164 159 164 164 173 187 182 182 189 196 204 197 154 193 189 168 184 204 211 227 196 222 211 251 279 295 305 302 298 295 288 284 248 259 246 248 236 271 279 287 277 247 229 229 217 211 220 232
171 167 163 159 157 156 159 161 163 165 156 166 162 162 162 164 167 163 182 192 199 183 189 189 202 183 177 197 191 182 195 223 224 231 201 230 220 214 255 307 304 299 310 313 320 297 313 297 305 300 277 269 272 262 260 252 242 230 227 220 219 230
170 169 165 164 160 160 162 165 166 161 161 168 160 160 167 165 162 178 190 191 198 188 187 182 188 190 196 193 195 187 211 205 234 240 220 233 212 211 208 223 237 259 281 298 294 302 325 313 308 295 273 283 300 316 301 288 282 237 219 222 223 228
170 167 166 162 158 159 166 167 167 159 167 168 157 167 166 167 177 189 189 191 192 196 191 195 185 187 192 194 203 207 211 197 233 246 212 207 198 206 210 219 215 211 217 207 245 272 263 237 268 286 300 302 302 305 297 293 282 242 227 224 224 228
167 164 166 164 159 157 155 164 166 167 170 167 165 163 170 178 185 191 185 181 188 195 201 189 193 188 190 193 191 198 207 206 208 211 195 195 171 176 187 211 204 204 189 180 203 273 243 243 329 319 316 317 329 313 291 293 291 276 251 242 229 229
169 169 169 165 157 152 159 164 170 173 173 169 170 167 180 185 188 190 182 181 185 192 185 183 171 177 172 168 174 180 189 197 191 183 171 173 156 177 152 53 8 18 4 37 5 317 2 334 314 305 311 308 313 299 306 301 272 268 270 258 248 240
171 172 170 169 165 161 156 166 174 179 175 175 171 175 184 189 192 194 180 182 176 175 178 156 153 153 158 158 164 175 187 186 181 173 125 145 124 89 82 359 46 15 337 348 329 295 345 314 308 311 302 304 298 301 313 303 298 281 262 255 249 250
171 169 173 172 167 164 161 167 174 176 172 178 173 182 189 191 193 183 174 168 173 169 164 157 148 148 144 163 153 154 211 171 170 110 113 187 163 183 98 11 48 113 2 322 356 327 349 322 313 304 302 301 291 295 293 294 294 295 282 275 261 261
170 172 172 168 163 160 157 166 172 174 177 174 179 188 190 185 177 172 173 172 170 165 161 160 159 160 151 152 138 155 224 200 173 149 165 156 154 94 66 23 332 28 123 265 331 316 318 319 316 308 305 303 298 299 291 283 286 285 304 298 290 280
172 174 169 166 165 159 160 164 162 171 172 173 178 180 176 169 173 174 165 166 162 158 161 164 167 163 141 152 161 163 210 182 137 140 145 151 77 57 80 71 359 344 59 100 314 304 305 318 313 307 310 308 305 306 291 293 289 306 316 305 304 295
173 169 172 168 162 149 150 151 144 151 153 149 140 151 158 161 168 163 166 163 154 155 162 171 173 157 137 151 140 160 141 136 137 132 126 81 25 11 45 59 80 307 337 214 223 257 279 297 300 302 302 297 302 298 298 290 320 313 295 279 278 289
177 172 176 168 159 152 149 150 145 130 137 151 145 144 154 151 152 162 167 156 150 137 103 169 176 158 150 152 144 124 118 136 125 119 107 92 17 67 67 35 352 343 335 335 344 312 294 325 305 297 286 293 288 293 294 320 328 287 296 296 301 312
195 178 177 173 169 161 159 150 137 159 157 158 155 152 146 140 155 166 157 149 148 110 67 74 188 154 157 147 145 150 106 123 131 132 126 160 168 142 197 171 252 6 169 13 331 334 318 75 24 327 292 273 299 294 299 337 289 327 328 315 309 317
245 188 179 185 176 173 174 170 158 155 138 147 146 156 148 155 164 154 144 144 137 101 73 63 229 186 159 160 155 132 126 142 135 121 131 144 135 129 140 128 183 86 358 101 326 348 335 25 10 344 325 327 322 312 312 21 14 339 336 345 334 317
201 193 178 178 178 174 157 138 135 135 142 122 19 121 126 134 142 144 145 138 140 120 117 249 171 211 169 182 163 145 144 150 136 131 113 106 119 102 96 107 93 107 19 14 330 306 8 81 326 299 300 342 331 346 335 349 326 349 325 323 317 317
184 187 175 178 175 157 129 107 98 120 109 112 151 118 91 96 109 122 147 133 114 135 182 215 180 216 184 177 163 147 130 122 136 140 143 135 124 104 53 71 98 78 121 32 4 316 30 69 117 13 350 9 292 341 329 312 313 296 268 308 316 305
176 182 176 169 159 141 119 102 100 84 92 83 63 83 116 106 133 165 133 145 200 174 200 203 199 224 149 133 164 138 109 111 110 106 121 127 129 118 83 36 105 94 91 138 14 307 312 43 8 189 167 352 338 5 222 270 323 294 339 327 296 296
169 173 172 162 156 149 146 139 138 136 140 141 151 158 177 177 171 170 181 171 161 181 186 180 193 196 134 136 99 86 96 101 97 90 89 95 107 100 86 94 165 141 125 157 146 94 330 317 342 319 199 167 185 272 316 313 324 315 315 267 263 287
169 170 164 159 161 152 149 154 158 162 164 169 165 189 161 154 159 161 142 151 184 182 167 151 142 142 118 110 106 104 111 106 101 98 100 100 85 87 90 103 109 105 126 117 98 94 268 272 337 13 33 268 289 261 238 307 314 303 313 314 219 291
167 165 164 159 164 161 155 158 157 153 153 161 169 170 168 159 141 144 132 134 128 100 102 110 125 121 117 113 114 109 107 104 98 86 87 80 94 87 73 36 57 83 96 108 130 131 286 274 120 270 324 306 299 289 287 251 251 268 293 305 318 284
163 160 158 160 159 163 155 156 153 148 150 149 132 131 133 130 137 125 103 91 99 89 85 89 119 118 111 113 113 113 103 94 89 83 85 83 72 77 81 73 46 46 46 57 88 137 131 223 163 234 335 331 328 301 303 270 274 267 287 307 296 311
157 157 155 159 153 146 144 142 144 151 147 135 122 116 130 138 136 120 117 105 102 98 106 105 97 104 105 102 104 102 97 95 97 94 86 91 86 70 58 66 69 81 78 55 43 96 111 257 223 252 180 221 300 304 294 306 318 282 266 248 279 307
149 140 153 153 151 146 143 148 149 153 151 146 146 144 139 129 117 119 125 118 111 105 110 115 107 88 99 110 104 100 101 97 92 88 84 77 71 80 68 74 64 65 60 57 18 22 27 44 75 31 30 45 341 335 338 324 329 318 305 298 296 289
146 144 148 146 141 139 142 146 147 150 150 153 154 160 158 156 156 151 143 123 112 109 112 103 103 103 86 87 96 92 96 94 89 87 83 85 77 70 66 61 52 54 47 45 41 49 47 41 33 36 31 31 42 28 24 3 336 322 317 309 307 306
150 147 146 147 146 141 142 147 148 149 151 156 163 163 160 155 159 153 144 127 124 126 125 110 107 105 103 104 108 106 101 99 94 92 98 83 65 54 53 61 56 53 48 48 44 51 59 48 42 31 7 26 52 39 18 348 328 326 326 322 313 300
150 145 143 144 144 141 142 144 149 150 152 158 162 162 161 156 156 150 141 131 128 137 137 137 129 121 130 102 85 100 103 97 101 103 93 86 71 56 54 57 54 55 54 59 63 61 60 58 50 38 19 19 37 32 11 346 335 334 335 328 320 317
148 151 150 148 143 141 138 142 142 140 146 153 151 144 135 141 147 141 136 125 123 126 131 134 127 122 98 100 104 101 98 98 96 91 87 78 66 58 51 55 55 66 69 64 67 69 60 57 51 37 31 27 22 25 9 359 343 344 333 328 319 319
151 148 148 149 150 143 140 138 140 139 136 129 120 112 109 109 108 122 130 125 124 125 127 124 107 106 108 119 118 108 103 103 107 101 89 81 70 64 56 65 62 68 73 63 69 61 59 59 53 41 36 25 30 17 1 350 342 334 326 322 320 321
142 143 151 156 149 145 144 141 141 134 131 126 127 134 134 127 123 120 119 117 120 123 117 112 118 115 118 115 122 121 114 109 92 86 74 71 73 67 69 64 70 72 73 71 71 65 61 61 49 43 37 29 26 3 358 343 337 330 321 318 315 310